This is the latest recevied weather packets stored in our database for station/object RU2DX-10. If no packets are shown the sender has not sent any weather packets the latest 1 day(s).
| Time | Temp. | Humidity | Pressure | Rain* | Wind** | Luminosity | Snow |
|---|---|---|---|---|---|---|---|
| 1777934982 | 16.67° C | 60% | 1007.7 hPa | - | - | - | - |
| 1777934082 | 16.67° C | 59% | 1007.7 hPa | - | - | - | - |
| 1777933181 | 17.22° C | 58% | 1007.8 hPa | - | - | - | - |
| 1777932279 | 17.22° C | 58% | 1007.8 hPa | - | - | - | - |
| 1777931379 | 17.22° C | 58% | 1007.9 hPa | - | - | - | - |
| 1777930479 | 17.22° C | 60% | 1008 hPa | - | - | - | - |
| 1777929578 | 17.22° C | 60% | 1008.2 hPa | - | - | - | - |
| 1777928678 | 17.22° C | 61% | 1008.1 hPa | - | - | - | - |
| 1777927777 | 17.78° C | 60% | 1008.1 hPa | - | - | - | - |
| 1777926877 | 17.78° C | 59% | 1008.1 hPa | - | - | - | - |
| 1777925976 | 17.78° C | 58% | 1008 hPa | - | - | - | - |
| 1777925076 | 17.78° C | 56% | 1008.1 hPa | - | - | - | - |
| 1777924175 | 18.33° C | 55% | 1008.1 hPa | - | - | - | - |
| 1777923275 | 18.33° C | 55% | 1008.2 hPa | - | - | - | - |
| 1777922375 | 18.89° C | 51% | 1008.2 hPa | - | - | - | - |
| 1777921474 | 18.89° C | 50% | 1008.1 hPa | - | - | - | - |
| 1777920573 | 19.44° C | 51% | 1008.2 hPa | - | - | - | - |
| 1777919673 | 20° C | 48% | 1008.2 hPa | - | - | - | - |
| 1777918772 | 20° C | 48% | 1008.3 hPa | - | - | - | - |
| 1777917872 | 20° C | 48% | 1008.3 hPa | - | - | - | - |
| 1777916971 | 20.56° C | 46% | 1008.3 hPa | - | - | - | - |
| 1777916070 | 21.11° C | 45% | 1008.3 hPa | - | - | - | - |
| 1777915170 | 21.67° C | 42% | 1008.2 hPa | - | - | - | - |
| 1777914269 | 22.22° C | 41% | 1008.1 hPa | - | - | - | - |
| 1777913369 | 22.78° C | 40% | 1008.1 hPa | - | - | - | - |
* Rain since midnight (hover to see other rain measurements)
** Current wind speed in m/s (hover to see current wind gust speed)